Time,TemperatureF,DewpointF,PressureIn,WindDirection,WindDirectionDegrees,WindSpeedMPH,WindSpeedGustMPH,Humidity,HourlyPrecipIn,Conditions,Clouds,dailyrainin,SoftwareType,DateUTC
2013-01-23 00:02:00,12.0,3.0,-100.00,WSW,245,4.0,6.0,67,0.00,,,-99.99,,2013-01-23 06:02:00,
2013-01-23 00:12:00,12.0,4.0,-100.00,WSW,250,5.0,6.0,67,0.00,,,-99.99,,2013-01-23 06:12:00,
2013-01-23 00:22:00,12.0,4.0,-100.00,WSW,245,6.0,7.0,67,0.00,,,-99.99,,2013-01-23 06:22:00,
2013-01-23 00:32:00,12.0,4.0,-100.00,SW,215,7.0,8.0,68,0.00,,,-99.99,,2013-01-23 06:32:00,
2013-01-23 00:42:00,12.0,4.0,-100.00,SW,230,8.0,11.0,68,0.00,,,-99.99,,2013-01-23 06:42:00,
2013-01-23 00:52:00,12.0,4.0,-100.00,SW,230,8.0,11.0,69,0.00,,,-99.99,,2013-01-23 06:52:00,
2013-01-23 01:02:00,12.0,4.0,-100.00,SW,230,8.0,11.0,69,0.00,,,-99.99,,2013-01-23 07:02:00,
2013-01-23 01:12:00,12.0,4.0,-100.00,WSW,245,6.0,10.0,69,0.00,,,-99.99,,2013-01-23 07:12:00,
2013-01-23 01:22:00,12.0,4.0,-100.00,WSW,240,9.0,11.0,69,0.00,,,-99.99,,2013-01-23 07:22:00,
2013-01-23 01:33:00,12.0,4.0,-100.00,West,260,6.0,10.0,69,0.00,,,-99.99,,2013-01-23 07:33:00,
2013-01-23 01:42:00,12.0,4.0,-100.00,West,260,6.0,10.0,69,0.00,,,-99.99,,2013-01-23 07:42:00,
2013-01-23 01:52:00,12.0,4.0,-100.00,WSW,245,7.0,12.0,69,0.00,,,-99.99,,2013-01-23 07:52:00,
2013-01-23 02:02:00,12.0,4.0,-100.00,WSW,240,6.0,11.0,69,0.00,,,-99.99,,2013-01-23 08:02:00,
2013-01-23 02:13:00,12.0,4.0,-100.00,WSW,245,6.0,10.0,69,0.00,,,-99.99,,2013-01-23 08:13:00,
2013-01-23 02:22:00,12.0,4.0,-100.00,WSW,245,6.0,11.0,69,0.00,,,-99.99,,2013-01-23 08:22:00,
2013-01-23 02:33:00,12.0,4.0,-100.00,WSW,240,9.0,11.0,69,0.00,,,-99.99,,2013-01-23 08:33:00,
2013-01-23 02:42:00,12.0,4.0,-100.00,SW,235,9.0,12.0,69,0.00,,,-99.99,,2013-01-23 08:42:00,
2013-01-23 02:52:00,12.0,4.0,-100.00,WSW,240,5.0,10.0,69,0.00,,,-99.99,,2013-01-23 08:52:00,
2013-01-23 03:03:00,12.0,4.0,-100.00,SW,220,6.0,8.0,69,0.00,,,-99.99,,2013-01-23 09:03:00,
2013-01-23 03:12:00,13.0,5.0,-100.00,SW,230,7.0,9.0,69,0.00,,,-99.99,,2013-01-23 09:12:00,
2013-01-23 03:22:00,13.0,4.0,-100.00,SW,230,7.0,9.0,69,0.00,,,-99.99,,2013-01-23 09:22:00,
2013-01-23 03:32:00,13.0,5.0,-100.00,SW,230,7.0,10.0,69,0.00,,,-99.99,,2013-01-23 09:32:00,
2013-01-23 03:43:00,13.0,5.0,-100.00,SW,235,8.0,9.0,69,0.00,,,-99.99,,2013-01-23 09:43:00,
2013-01-23 03:52:00,13.0,5.0,-100.00,SSW,210,4.0,7.0,69,0.00,,,-99.99,,2013-01-23 09:52:00,
2013-01-23 04:03:00,13.0,5.0,-100.00,SSW,200,6.0,8.0,69,0.00,,,-99.99,,2013-01-23 10:03:00,
2013-01-23 04:12:00,13.0,5.0,-100.00,SW,220,2.0,6.0,69,0.00,,,-99.99,,2013-01-23 10:12:00,
2013-01-23 04:22:00,13.0,5.0,-100.00,WSW,240,2.0,4.0,69,0.00,,,-99.99,,2013-01-23 10:22:00,
2013-01-23 04:33:00,13.0,5.0,-100.00,SW,230,4.0,4.0,69,0.00,,,-99.99,,2013-01-23 10:33:00,
2013-01-23 04:43:00,13.0,5.0,-100.00,SSW,210,4.0,4.0,69,0.00,,,-99.99,,2013-01-23 10:43:00,
2013-01-23 04:52:00,13.0,5.0,-100.00,SSW,200,2.0,5.0,69,0.00,,,-99.99,,2013-01-23 10:52:00,
2013-01-23 05:02:00,13.0,5.0,-100.00,SW,230,4.0,4.0,69,0.00,,,-99.99,,2013-01-23 11:02:00,
2013-01-23 05:12:00,13.0,5.0,-100.00,SSW,210,4.0,6.0,70,0.00,,,-99.99,,2013-01-23 11:12:00,
2013-01-23 05:22:00,13.0,6.0,-100.00,SSW,200,5.0,6.0,71,0.00,,,-99.99,,2013-01-23 11:22:00,
2013-01-23 05:33:00,13.0,6.0,-100.00,SSW,210,6.0,7.0,71,0.00,,,-99.99,,2013-01-23 11:33:00,
2013-01-23 05:43:00,13.0,6.0,-100.00,SW,230,5.0,7.0,71,0.00,,,-99.99,,2013-01-23 11:43:00,
2013-01-23 05:52:00,13.0,6.0,-100.00,SSW,205,3.0,7.0,71,0.00,,,-99.99,,2013-01-23 11:52:00,
2013-01-23 06:03:00,13.0,6.0,-100.00,SSW,205,3.0,7.0,71,0.00,,,-99.99,,2013-01-23 12:03:00,
2013-01-23 06:12:00,13.0,6.0,-100.00,SW,215,5.0,6.0,71,0.00,,,-99.99,,2013-01-23 12:12:00,
2013-01-23 06:22:00,13.0,6.0,-100.00,SW,220,4.0,6.0,71,0.00,,,-99.99,,2013-01-23 12:22:00,
2013-01-23 06:33:00,14.0,6.0,-100.00,South,190,4.0,7.0,71,0.00,,,-99.99,,2013-01-23 12:33:00,
2013-01-23 06:43:00,14.0,6.0,-100.00,South,175,7.0,9.0,71,0.00,,,-99.99,,2013-01-23 12:43:00,
2013-01-23 07:03:00,14.0,6.0,-100.00,South,190,6.0,10.0,71,0.00,,,-99.99,,2013-01-23 13:03:00,
2013-01-23 07:13:00,14.0,6.0,-100.00,SSW,195,7.0,11.0,70,0.00,,,-99.99,,2013-01-23 13:13:00,
2013-01-23 07:23:00,14.0,6.0,-100.00,South,185,5.0,9.0,70,0.00,,,-99.99,,2013-01-23 13:23:00,
2013-01-23 07:33:00,14.0,6.0,-100.00,SSW,205,4.0,9.0,70,0.00,,,-99.99,,2013-01-23 13:33:00,
2013-01-23 07:42:00,14.0,6.0,-100.00,South,190,6.0,9.0,70,0.00,,,-99.99,,2013-01-23 13:42:00,
2013-01-23 07:52:00,14.0,6.0,-100.00,South,185,6.0,8.0,70,0.00,,,-99.99,,2013-01-23 13:52:00,
2013-01-23 08:02:00,14.0,6.0,-100.00,SW,215,7.0,10.0,70,0.00,,,-99.99,,2013-01-23 14:02:00,
2013-01-23 08:12:00,15.0,7.0,-100.00,SSW,195,7.0,10.0,69,0.00,,,-99.99,,2013-01-23 14:12:00,
2013-01-23 08:23:00,15.0,7.0,-100.00,South,190,7.0,11.0,69,0.00,,,-99.99,,2013-01-23 14:23:00,
2013-01-23 08:33:00,15.0,7.0,-100.00,SSW,200,8.0,12.0,69,0.00,,,-99.99,,2013-01-23 14:33:00,
2013-01-23 08:42:00,15.0,7.0,-100.00,South,190,7.0,11.0,69,0.00,,,-99.99,,2013-01-23 14:42:00,
2013-01-23 08:53:00,15.0,7.0,-100.00,SSW,210,9.0,12.0,69,0.00,,,-99.99,,2013-01-23 14:53:00,
2013-01-23 09:03:00,15.0,7.0,-100.00,SSW,210,7.0,13.0,69,0.00,,,-99.99,,2013-01-23 15:03:00,
2013-01-23 09:12:00,15.0,7.0,-100.00,South,180,7.0,14.0,69,0.00,,,-99.99,,2013-01-23 15:12:00,
2013-01-23 09:22:00,16.0,8.0,-100.00,South,185,7.0,10.0,69,0.00,,,-99.99,,2013-01-23 15:22:00,
2013-01-23 09:33:00,16.0,8.0,-100.00,SSW,205,9.0,11.0,69,0.00,,,-99.99,,2013-01-23 15:33:00,
2013-01-23 09:43:00,16.0,8.0,-100.00,SSW,200,9.0,12.0,69,0.00,,,-99.99,,2013-01-23 15:43:00,
2013-01-23 09:53:00,16.0,8.0,-100.00,SW,215,9.0,11.0,69,0.00,,,-99.99,,2013-01-23 15:53:00,
2013-01-23 10:03:00,16.0,8.0,-100.00,SW,215,9.0,11.0,69,0.00,,,-99.99,,2013-01-23 16:03:00,
2013-01-23 10:12:00,17.0,9.0,-100.00,South,190,9.0,12.0,69,0.00,,,-99.99,,2013-01-23 16:12:00,
2013-01-23 10:23:00,17.0,9.0,-100.00,SSW,195,9.0,13.0,69,0.00,,,-99.99,,2013-01-23 16:23:00,
2013-01-23 10:33:00,17.0,9.0,-100.00,SSW,205,10.0,13.0,69,0.00,,,-99.99,,2013-01-23 16:33:00,
2013-01-23 10:42:00,17.0,9.0,-100.00,SW,220,9.0,13.0,69,0.00,,,-99.99,,2013-01-23 16:42:00,
2013-01-23 10:52:00,18.0,9.0,-100.00,SSW,195,7.0,12.0,69,0.00,,,-99.99,,2013-01-23 16:52:00,
2013-01-23 11:03:00,18.0,9.0,-100.00,SSW,210,7.0,12.0,69,0.00,,,-99.99,,2013-01-23 17:03:00,
2013-01-23 11:12:00,18.0,10.0,-100.00,South,190,7.0,12.0,69,0.00,,,-99.99,,2013-01-23 17:12:00,
2013-01-23 11:22:00,18.0,10.0,-100.00,South,190,10.0,12.0,69,0.00,,,-99.99,,2013-01-23 17:22:00,
2013-01-23 11:33:00,19.0,10.0,-100.00,SSW,205,10.0,15.0,68,0.00,,,-99.99,,2013-01-23 17:33:00,
2013-01-23 11:42:00,19.0,10.0,-100.00,SSW,210,10.0,13.0,68,0.00,,,-99.99,,2013-01-23 17:42:00,
2013-01-23 11:52:00,20.0,11.0,-100.00,SSW,205,6.0,13.0,67,0.00,,,-99.99,,2013-01-23 17:52:00,
2013-01-23 12:03:00,20.0,11.0,-100.00,SSW,200,9.0,11.0,67,0.00,,,-99.99,,2013-01-23 18:03:00,
2013-01-23 12:12:00,21.0,11.0,-100.00,SSW,205,7.0,10.0,66,0.00,,,-99.99,,2013-01-23 18:12:00,
2013-01-23 12:23:00,21.0,12.0,-100.00,SSW,210,9.0,11.0,66,0.00,,,-99.99,,2013-01-23 18:23:00,
2013-01-23 12:33:00,21.0,12.0,-100.00,SSW,210,9.0,11.0,66,0.00,,,-99.99,,2013-01-23 18:33:00,
2013-01-23 12:43:00,22.0,12.0,-100.00,SW,230,7.0,11.0,65,0.00,,,-99.99,,2013-01-23 18:43:00,
2013-01-23 12:52:00,22.0,12.0,-100.00,WSW,245,9.0,12.0,64,0.00,,,-99.99,,2013-01-23 18:52:00,
2013-01-23 13:03:00,22.0,12.0,-100.00,WSW,250,11.0,15.0,64,0.00,,,-99.99,,2013-01-23 19:03:00,
2013-01-23 13:13:00,23.0,13.0,-100.00,West,270,12.0,17.0,63,0.00,,,-99.99,,2013-01-23 19:13:00,
2013-01-23 13:22:00,24.0,13.0,-100.00,WSW,255,12.0,17.0,63,0.00,,,-99.99,,2013-01-23 19:22:00,
2013-01-23 13:33:00,25.0,14.0,-100.00,West,260,10.0,17.0,62,0.00,,,-99.99,,2013-01-23 19:33:00,
2013-01-23 13:43:00,25.0,14.0,-100.00,WNW,285,12.0,19.0,62,0.00,,,-99.99,,2013-01-23 19:43:00,
2013-01-23 13:52:00,25.0,14.0,-100.00,West,275,12.0,17.0,62,0.00,,,-99.99,,2013-01-23 19:52:00,
2013-01-23 14:03:00,25.0,14.0,-100.00,West,275,12.0,17.0,62,0.00,,,-99.99,,2013-01-23 20:03:00,
2013-01-23 14:13:00,26.0,14.0,-100.00,WNW,295,9.0,19.0,60,0.00,,,-99.99,,2013-01-23 20:13:00,
2013-01-23 14:23:00,26.0,14.0,-100.00,WNW,290,11.0,17.0,60,0.00,,,-99.99,,2013-01-23 20:23:00,
2013-01-23 14:33:00,26.0,14.0,-100.00,WNW,300,13.0,21.0,60,0.00,,,-99.99,,2013-01-23 20:33:00,
2013-01-23 14:43:00,26.0,15.0,-100.00,WNW,295,11.0,19.0,60,0.00,,,-99.99,,2013-01-23 20:43:00,
2013-01-23 14:53:00,27.0,15.0,-100.00,NW,305,10.0,18.0,60,0.00,,,-99.99,,2013-01-23 20:53:00,
2013-01-23 15:03:00,27.0,15.0,-100.00,NW,305,10.0,18.0,60,0.00,,,-99.99,,2013-01-23 21:03:00,
2013-01-23 15:12:00,27.0,15.0,-100.00,West,280,13.0,18.0,60,0.00,,,-99.99,,2013-01-23 21:12:00,
2013-01-23 15:22:00,27.0,15.0,-100.00,WNW,295,15.0,24.0,60,0.00,,,-99.99,,2013-01-23 21:22:00,
2013-01-23 15:33:00,27.0,15.0,-100.00,WNW,295,15.0,24.0,60,0.00,,,-99.99,,2013-01-23 21:33:00,
2013-01-23 15:42:00,27.0,15.0,-100.00,WNW,285,12.0,19.0,60,0.00,,,-99.99,,2013-01-23 21:42:00,
2013-01-23 15:52:00,27.0,15.0,-100.00,WNW,295,14.0,20.0,60,0.00,,,-99.99,,2013-01-23 21:52:00,
2013-01-23 16:02:00,27.0,15.0,-100.00,NW,305,16.0,22.0,60,0.00,,,-99.99,,2013-01-23 22:02:00,
2013-01-23 16:12:00,27.0,15.0,-100.00,WNW,295,16.0,22.0,61,0.00,,,-99.99,,2013-01-23 22:12:00,
2013-01-23 16:23:00,26.0,15.0,-100.00,WNW,295,16.0,24.0,62,0.00,,,-99.99,,2013-01-23 22:23:00,
2013-01-23 16:33:00,26.0,15.0,-100.00,WNW,295,14.0,21.0,62,0.00,,,-99.99,,2013-01-23 22:33:00,
2013-01-23 16:42:00,26.0,15.0,-100.00,WNW,300,14.0,24.0,62,0.00,,,-99.99,,2013-01-23 22:42:00,
2013-01-23 16:52:00,25.0,15.0,-100.00,NW,305,14.0,21.0,63,0.00,,,-99.99,,2013-01-23 22:52:00,
2013-01-23 17:03:00,25.0,14.0,-100.00,WNW,300,12.0,22.0,64,0.00,,,-99.99,,2013-01-23 23:03:00,
2013-01-23 17:12:00,25.0,14.0,-100.00,WNW,300,12.0,22.0,64,0.00,,,-99.99,,2013-01-23 23:12:00,
2013-01-23 17:22:00,24.0,14.0,-100.00,NW,305,13.0,21.0,66,0.00,,,-99.99,,2013-01-23 23:22:00,
2013-01-23 17:33:00,23.0,14.0,-100.00,NW,305,14.0,21.0,66,0.00,,,-99.99,,2013-01-23 23:33:00,
2013-01-23 17:43:00,23.0,13.0,-100.00,WNW,295,14.0,22.0,66,0.00,,,-99.99,,2013-01-23 23:43:00,
2013-01-23 17:53:00,22.0,13.0,-100.00,NW,320,12.0,26.0,66,0.00,,,-99.99,,2013-01-23 23:53:00,
2013-01-23 18:03:00,21.0,12.0,-100.00,NW,310,11.0,19.0,66,0.00,,,-99.99,,2013-01-24 00:03:00,
2013-01-23 18:12:00,21.0,11.0,-100.00,WNW,295,11.0,17.0,66,0.00,,,-99.99,,2013-01-24 00:12:00,
2013-01-23 18:22:00,20.0,11.0,-100.00,NW,315,11.0,17.0,67,0.00,,,-99.99,,2013-01-24 00:22:00,
2013-01-23 18:32:00,19.0,11.0,-100.00,WNW,285,10.0,14.0,69,0.00,,,-99.99,,2013-01-24 00:32:00,
2013-01-23 18:42:00,19.0,11.0,-100.00,WNW,285,10.0,14.0,69,0.00,,,-99.99,,2013-01-24 00:42:00,
2013-01-23 18:53:00,19.0,11.0,-100.00,WNW,300,12.0,17.0,70,0.00,,,-99.99,,2013-01-24 00:53:00,
2013-01-23 19:03:00,20.0,11.0,-100.00,WNW,300,14.0,22.0,69,0.00,,,-99.99,,2013-01-24 01:03:00,
2013-01-23 19:12:00,19.0,11.0,-100.00,WNW,290,13.0,19.0,69,0.00,,,-99.99,,2013-01-24 01:12:00,
2013-01-23 19:23:00,19.0,11.0,-100.00,NW,320,10.0,22.0,69,0.00,,,-99.99,,2013-01-24 01:23:00,
2013-01-23 19:33:00,18.0,10.0,-100.00,NW,315,14.0,23.0,69,0.00,,,-99.99,,2013-01-24 01:33:00,
2013-01-23 19:42:00,18.0,9.0,-100.00,NW,325,12.0,27.0,67,0.00,,,-99.99,,2013-01-24 01:42:00,
2013-01-23 19:52:00,17.0,9.0,-100.00,NW,325,15.0,26.0,68,0.00,,,-99.99,,2013-01-24 01:52:00,
2013-01-23 20:02:00,17.0,9.0,-100.00,NNW,330,15.0,26.0,68,0.00,,,-99.99,,2013-01-24 02:02:00,
2013-01-23 20:12:00,16.0,8.0,-100.00,NW,320,16.0,26.0,68,0.00,,,-99.99,,2013-01-24 02:12:00,
2013-01-23 20:22:00,16.0,7.0,-100.00,NW,315,15.0,24.0,69,0.00,,,-99.99,,2013-01-24 02:22:00,
2013-01-23 20:33:00,15.0,7.0,-100.00,NW,310,10.0,24.0,69,0.00,,,-99.99,,2013-01-24 02:33:00,
2013-01-23 20:42:00,15.0,7.0,-100.00,NW,310,10.0,24.0,69,0.00,,,-99.99,,2013-01-24 02:42:00,
2013-01-23 20:52:00,15.0,7.0,-100.00,NW,310,10.0,24.0,69,0.00,,,-99.99,,2013-01-24 02:52:00,
2013-01-23 21:02:00,14.0,6.0,-100.00,WNW,300,9.0,21.0,71,0.00,,,-99.99,,2013-01-24 03:02:00,
2013-01-23 21:12:00,14.0,7.0,-100.00,NNW,330,12.0,25.0,71,0.00,,,-99.99,,2013-01-24 03:12:00,
2013-01-23 21:22:00,14.0,7.0,-100.00,NNW,330,14.0,22.0,72,0.00,,,-99.99,,2013-01-24 03:22:00,
2013-01-23 21:33:00,13.0,7.0,-100.00,NW,325,14.0,21.0,74,0.00,,,-99.99,,2013-01-24 03:33:00,
2013-01-23 21:43:00,13.0,7.0,-100.00,NNW,335,13.0,21.0,75,0.00,,,-99.99,,2013-01-24 03:43:00,
2013-01-23 21:52:00,13.0,6.0,-100.00,NW,325,11.0,20.0,74,0.00,,,-99.99,,2013-01-24 03:52:00,
2013-01-23 22:02:00,13.0,6.0,-100.00,NW,325,12.0,17.0,74,0.00,,,-99.99,,2013-01-24 04:02:00,
2013-01-23 22:12:00,13.0,6.0,-100.00,NNW,330,13.0,21.0,73,0.00,,,-99.99,,2013-01-24 04:12:00,
2013-01-23 22:22:00,13.0,6.0,-100.00,NNW,335,14.0,19.0,72,0.00,,,-99.99,,2013-01-24 04:22:00,
2013-01-23 22:32:00,13.0,5.0,-100.00,NNW,345,14.0,21.0,72,0.00,,,-99.99,,2013-01-24 04:32:00,
2013-01-23 22:42:00,13.0,6.0,-100.00,North,350,10.0,19.0,75,0.00,,,-99.99,,2013-01-24 04:42:00,
2013-01-23 22:52:00,13.0,7.0,-100.00,North,0,16.0,23.0,76,0.00,,,-99.99,,2013-01-24 04:52:00,
2013-01-23 23:03:00,12.0,6.0,-100.00,North,0,14.0,21.0,76,0.00,,,-99.99,,2013-01-24 05:03:00,
2013-01-23 23:12:00,11.0,5.0,-100.00,North,0,12.0,17.0,74,0.00,,,-99.99,,2013-01-24 05:12:00,
2013-01-23 23:22:00,11.0,5.0,-100.00,North,0,12.0,17.0,74,0.00,,,-99.99,,2013-01-24 05:22:00,
2013-01-23 23:33:00,11.0,3.0,-100.00,North,0,17.0,19.0,71,0.00,,,-99.99,,2013-01-24 05:33:00,
2013-01-23 23:42:00,10.0,2.0,-100.00,North,0,11.0,17.0,70,0.00,,,-99.99,,2013-01-24 05:42:00,
2013-01-23 23:52:00,10.0,2.0,-100.00,NNE,15,17.0,25.0,68,0.00,,,-99.99,,2013-01-24 05:52:00,